Starlink 33919

operational
NORAD ID: 63699 Int'l Des: 2025-087 Owner: SPXS Country: US Constellation: starlink
LEOCIRCULAR

About Starlink 33919

Description loading...

Live Position

Loading 3D Globe...

Upcoming Passes

Altitude History

Altitude vs Time

uPlot chart will show altitude changes over time

Two-Line Element Set

1 63699U 25087C 26102.90881683 .00010859 00000-0 37817-3 0 9991
2 63699 53.1595 60.9752 0001383 91.4414 268.6745 15.30203261 54437
Epoch: Apr 12, 2026 • Age: 8 hours

Current Status

Altitude 484.1 km
Velocity 7.62 km/s
Sub-Earth Point -27.92°S, 112.39°E
Launch Date Apr 28, 2025
Age 0.9 years
Type internet

Technical Details

Classification Payload
Mass 575.00 kg
Dry Mass 530.00 kg
Total Mass 575.00 kg
Length 0.30 m
Diameter 4.10 m
Span 29.00 m
Shape Box + pan
Manufacturer SPXS
Bus Type Starlink V2MO
Phase Status In Orbit
Owner/State SPXS/US

Large Constellations

Loading constellations...